Content
SEND FEEDBACK

Daily
Averages
Monthly
Summary
United States of America

BAYSIDE, NEW YORK


Home > North America > United States > New York
Elevation: 11 feet     Latitude: 40 46N     Longitude: 073 54W

WEATHER
 
SELECT A DAY
Number of Records: 193,997;   Date Range: 1/1/95 - 10/23/14
 
SHARE

PRINT THIS DATA

[ ← Previous Day ]
WEATHER ALMANAC - JANUARY 31, 2013
[ Next Day → ]
[ °C ]   °F
Weather ElementAverageHighLow
Temperature47 °F59 °F (4:51 am)30.9 °F (10:51 pm)
Dewpoint31.3 °F55.4 °F (4:32 am)7 °F (11:51 pm)
Humidity58.5 %94 % (2:25 am)31 % (11:51 am)
Barometer29.38 in29.79 in (11:51 pm)29.05 in (5:51 am)
Wind Speed25.4 mph40.3 mph (4:05 am)
Wind Gust62.1 mph (3:51 am)
Weather ElementAverage
Visibility8.4 mi
Wind DirectionWSW (238.6 °)

Weather ElementTotal
Precipitation1.47 in
Heating Degree Days20.1 (Base 65)
Averaged from 29 records on January 31, 2013
WEATHER CONDITIONS BREAKOUT
WIND DIRECTION BREAKOUT
WEATHER BY HOUR - JANUARY 31, 2013
[ °C ]   °F
Local TimeTemperatureDewpointHumidityBarometerVisibilityWind DirectionWind SpeedGust SpeedPrecipitationEventsConditions
12:51 AM55.0 °F53.1 °F93 %29.31 in8.0 miSouth (170°)18.4 mph27.6 mph0.09 inRainLight Rain
1:51 AM57.0 °F54.0 °F89 %29.23 in7.0 miSouth (170°)19.6 mph33.4 mph0.05 inRainRain
2:25 AM55.4 °F53.6 °F94 %29.19 in6.0 miSouth (180°)25.3 mph36.8 mph0.05 inRainLight Rain
2:51 AM55.9 °F53.1 °F90 %29.16 in8.0 miSouth (180°)31.1 mph42.6 mph0.07 inRainLight Rain
3:41 AM55.4 °F53.6 °F94 %29.09 in2.0 miSouth (180°)35.7 mph51.8 mph0.09 inRainHeavy Rain
3:51 AM57.0 °F54.0 °F89 %29.08 in2.0 miSouth (180°)34.5 mph62.1 mph0.15 inRainHeavy Rain
4:05 AM57.2 °F53.6 °F88 %29.07 in2.0 miSouth (180°)40.3 mph55.2 mph0.07 inRainHeavy Rain
4:32 AM57.2 °F55.4 °F94 %29.14 in4.0 miSW (230°)18.4 mph33.4 mph0.38 inRainRain
4:51 AM59.0 °F55.0 °F87 %29.13 in8.0 miSW (230°)13.8 mph20.7 mph0.41 inRainRain
5:51 AM57.9 °F52.0 °F81 %29.05 in10.0 miSSW (200°)13.8 mph21.9 mph0.09 inRainLight Rain
6:51 AM57.0 °F50.0 °F77 %29.09 in8.0 miSW (220°)23.0 mph35.7 mph0.00 inRainLight Rain
7:03 AM53.6 °F44.6 °F72 %29.14 in10.0 miWest (270°)28.8 mph48.3 mph0.00 inRainLight Rain
7:51 AM50.0 °F32.0 °F50 %29.20 in10.0 miWest (270°)31.1 mph42.6 mph0.02 inMostly Cloudy
8:51 AM48.0 °F28.9 °F48 %29.28 in10.0 miWest (260°)32.2 mph44.9 mphScattered Clouds
9:51 AM45.0 °F25.0 °F46 %29.35 in10.0 miWest (270°)28.8 mph38.0 mphMostly Cloudy
10:51 AM46.0 °F19.0 °F34 %29.39 in10.0 miWest (270°)31.1 mph46.0 mphScattered Clouds
11:51 AM46.0 °F17.1 °F31 %29.42 in10.0 miWest (270°)34.5 mph47.2 mphScattered Clouds
12:51 PM45.0 °F17.1 °F33 %29.43 in10.0 miWest (280°)25.3 mph35.7 mphScattered Clouds
1:51 PM45.0 °F18.0 °F34 %29.46 in10.0 miWest (260°)27.6 mph42.6 mphScattered Clouds
2:51 PM44.1 °F16.0 °F32 %29.49 in10.0 miWest (260°)20.7 mph35.7 mphPartly Cloudy
3:51 PM42.1 °F14.0 °F32 %29.53 in10.0 miWest (270°)31.1 mph42.6 mphPartly Cloudy
4:51 PM39.9 °F12.9 °F33 %29.58 in10.0 miWest (270°)28.8 mph46.0 mphScattered Clouds
5:51 PM36.0 °F12.0 °F37 %29.65 in10.0 miWest (260°)21.9 mph49.5 mphScattered Clouds
6:51 PM36.0 °F10.9 °F36 %29.70 in10.0 miWest (270°)17.3 mph34.5 mphPartly Cloudy
7:51 PM35.1 °F12.0 °F39 %29.71 in10.0 miWest (270°)23.0 mph29.9 mphPartly Cloudy
8:51 PM33.1 °F14.0 °F46 %29.73 in10.0 miWest (260°)19.6 mph39.1 mphMostly Cloudy
9:51 PM32.0 °F10.9 °F42 %29.75 in10.0 miWest (260°)21.9 mph35.7 mphPartly Cloudy
10:51 PM30.9 °F8.1 °F38 %29.78 in10.0 miWest (270°)19.6 mph35.7 mphClear
11:51 PM30.9 °F7.0 °F37 %29.79 in10.0 miWest (260°)18.4 mph25.3 mphClear
Hourly data recorded from KLGA, located miles away from Bayside, New York







STORIES FROM OUR PARTNERS